Location: Delia
(51.6321°N, 112.3740°W)
Time: 14:28:54
(UTC+00:00)

Envisat - Pass Details

Date: 07 December 2021
Orbit: 764 x 766 km, 98.2° (Epoch: 28 January)

Event Time Altitude Azimuth Distance (km) Brightness Sun altitude
Rises 11:59:20 0° 19° (NNE) 3,247 6.5 -30.1°
Reaches altitude 10° 12:01:48 10° 27° (NNE) 2,316 5.8 -29.8°
Maximum altitude 12:06:34 39° 97° (E) 1,135 4.3 -29.0°
Drops below altitude 10° 12:11:19 10° 166° (SSE) 2,299 5.6 -28.3°
Sets 12:13:45 0° 174° (S) 3,220 6.3 -27.9°
